Starlink 30272

operational
NORAD ID: 57860 Int'l Des: 2023-141 Owner: SPXS Country: US Constellation: starlink
LEOCIRCULAR

Über Starlink 30272

Beschreibung wird geladen...

Live-Position

3D-Globus wird geladen...

Nächste Überflüge

Höhenverlauf

Altitude vs Time

uPlot chart will show altitude changes over time

Zweizeiliger Elementsatz

1 57860U 23141W 25303.87988571 -.00000127 00000-0 78479-5 0 9994
2 57860 53.1614 167.0650 0001272 102.4579 257.6564 15.30191572120454
Epoch: 30. Okt. 2025 • Age: 12 hours

Aktueller Status

Höhe 477.5 km
Geschwindigkeit 7.63 km/s
Subsatellitenpunkt 37.13°N, 140.67°E
Startdatum 12. Sept. 2023
Alter 2.1 years
Typ internet

Technische Details

Klassifizierung Payload
Masse 730.00 kg
Trockenmasse 700.00 kg
Gesamtmasse 730.00 kg
Länge 0.30 m
Durchmesser 4.10 m
Spannweite 29.00 m
Form Box + pan
Hersteller SPXS
Bus-Typ Starlink V2M
Phasenstatus In Orbit
Besitzer/Staat SPXS/US

Große Konstellationen

Loading constellations...